TimeMDT,TemperatureF,Dew PointF,Humidity,Sea Level PressureIn,VisibilityMPH,Wind Direction,Wind SpeedMPH,Gust SpeedMPH,PrecipitationIn,Events,Conditions,WindDirDegrees,DateUTC
12:53 AM,46.0,39.0,76,29.96,10.0,NNW,11.5,-,0.00,,Overcast,330,2013-10-20 06:53:00
1:53 AM,44.1,39.0,82,29.98,10.0,NW,13.8,-,0.01,Rain,Light Rain,320,2013-10-20 07:53:00
2:53 AM,43.0,37.0,80,29.99,10.0,NW,25.3,31.1,0.01,Rain,Light Rain,320,2013-10-20 08:53:00
3:53 AM,42.1,37.0,82,30.01,10.0,WNW,15.0,-,0.01,,Overcast,300,2013-10-20 09:53:00
4:53 AM,41.0,37.9,89,30.02,10.0,WNW,16.1,-,N/A,,Overcast,300,2013-10-20 10:53:00
5:53 AM,41.0,37.0,86,30.03,10.0,WNW,13.8,-,N/A,,Mostly Cloudy,300,2013-10-20 11:53:00
6:53 AM,39.9,36.0,86,30.05,10.0,WNW,15.0,-,N/A,,Clear,300,2013-10-20 12:53:00
7:53 AM,39.9,35.1,83,30.07,10.0,WNW,10.4,-,N/A,,Partly Cloudy,290,2013-10-20 13:53:00
8:53 AM,42.1,36.0,79,30.09,10.0,West,10.4,-,N/A,,Mostly Cloudy,280,2013-10-20 14:53:00
9:53 AM,45.0,36.0,71,30.09,10.0,NW,8.1,-,N/A,,Clear,320,2013-10-20 15:53:00
10:53 AM,48.0,35.1,61,30.09,10.0,NNW,9.2,17.3,N/A,,Overcast,330,2013-10-20 16:53:00
11:53 AM,50.0,35.1,57,30.07,10.0,NW,15.0,-,N/A,,Scattered Clouds,320,2013-10-20 17:53:00
12:53 PM,51.1,32.0,48,30.06,10.0,NNW,17.3,21.9,N/A,,Partly Cloudy,340,2013-10-20 18:53:00
1:53 PM,52.0,30.9,45,30.04,10.0,North,16.1,24.2,N/A,,Partly Cloudy,360,2013-10-20 19:53:00
2:53 PM,53.1,30.9,43,30.04,10.0,NNW,16.1,21.9,N/A,,Clear,330,2013-10-20 20:53:00
3:53 PM,54.0,30.9,41,30.03,10.0,NNW,17.3,-,N/A,,Mostly Cloudy,340,2013-10-20 21:53:00
4:53 PM,52.0,30.0,43,30.05,10.0,North,13.8,-,N/A,,Mostly Cloudy,350,2013-10-20 22:53:00
5:53 PM,50.0,30.9,48,30.06,10.0,North,10.4,-,N/A,,Clear,350,2013-10-20 23:53:00
6:53 PM,46.0,32.0,58,30.09,10.0,WSW,11.5,-,N/A,,Scattered Clouds,240,2013-10-21 00:53:00
7:53 PM,43.0,34.0,71,30.10,10.0,WSW,4.6,-,N/A,,Overcast,250,2013-10-21 01:53:00
8:53 PM,42.1,35.1,76,30.11,10.0,West,5.8,-,N/A,,Mostly Cloudy,270,2013-10-21 02:53:00
9:53 PM,39.0,34.0,82,30.12,10.0,WNW,4.6,-,N/A,,Clear,290,2013-10-21 03:53:00
10:53 PM,39.9,33.1,77,30.12,10.0,West,4.6,-,N/A,,Mostly Cloudy,260,2013-10-21 04:53:00
11:53 PM,37.9,34.0,86,30.12,10.0,ESE,3.5,-,N/A,,Overcast,110,2013-10-21 05:53:00